Hourly Data Report for July 25, 2021

KUGLUKTUK A
NUNAVUT
Current Station Operator: NAVCAN

67°49'00.000" N
115°08'38.000" W
22.60 m
2300903
71938
YCO

Download Data

Hourly Data (July 2021)
Hourly Data Report for July 25, 2021
TIME
LST
Temp Definition
°C
Dew Point Definition
°C
Rel Hum Definition
%
Precip. Amount Definition
mm

Wind Dir Definition
10's deg

Wind Spd Definition
km/h
Visibility Definition
km
Stn Press Definition
kPa
Hmdx Definition


Wind Chill Definition


Weather Definition


00:00 8.3 3.0 69   36 21 24.1 100.94     LegendNANA
01:00 6.8 3.5 79   36 17 24.1 100.95     LegendNANA
02:00 5.5 2.0 78   34 8 24.1 100.94     Mainly Clear
03:00 4.6 2.4 85   26 13 24.1 100.96     LegendNANA
04:00 5.2 2.6 83   27 10 24.1 100.93     LegendNANA
05:00 5.1 3.7 91   23 19 24.1 100.89     Mainly Clear
06:00 6.8 3.9 82   25 11 24.1 100.87     LegendNANA
07:00 8.0 3.6 73   27 11 24.1 100.82     LegendNANA
08:00 8.3 2.2 65   24 10 24.1 100.79     Mostly Cloudy
09:00 10.2 2.1 57   26 11 24.1 100.74     LegendNANA
10:00 10.8 0.9 50   28 8 24.1 100.70     LegendNANA
11:00 11.8 2.1 51   2 4 24.1 100.65     Mostly Cloudy
12:00 13.0 2.5 49   2 7 24.1 100.59     LegendNANA
13:00 13.8 2.8 47   9 9 24.1 100.54     LegendNANA
14:00 14.1 4.1 51   6 17 24.1 100.49     Cloudy
15:00 13.0 4.3 55   8 21 24.1 100.44     LegendNANA
16:00 12.6 3.2 52   8 23 24.1 100.41     LegendNANA
17:00 12.3 4.0 57   9 23 24.1 100.38     Cloudy
18:00 11.8 4.7 61   10 19 24.1 100.35     LegendNANA
19:00 10.8 4.7 66   9 19 24.1 100.30     LegendNANA
20:00 10.0 4.5 69   9 23 24.1 100.29     Rain Showers
21:00 8.5 5.7 83   9 19 24.1 100.30     Rain Showers
22:00 8.4 6.0 85   11 20 24.1 100.29     Rain
23:00 7.6 5.8 88   12 15 24.1 100.29     Rain

Notes on Data Quality.

Legend

  • E = Estimated
  • M = Missing
  • NA = Not Available*
  • [empty] = Indicates an unobserved value
Date modified: